Borger, TX

4:28 PM CST on December 06, 2016 (GMT -0600)
Hutchinson County

Weather History for KBGD - November, 2013

Change the Weather History Date:

Wednesday, November 27, 2013

  Actual Average Record
Temperature  
Mean Temperature 41 °F 44 °F  
Max Temperature 57 °F 56 °F 78 °F (1998)
Min Temperature 25 °F 32 °F 10 °F (1976)
Degree Days  
Heating Degree Days 24 21  
Month to date heating degree days 473 429  
Since 1 July heating degree days 664 650  
Cooling Degree Days 0 0  
Month to date cooling degree days 0 0  
Year to date cooling degree days 2220 1835  
Moisture  
Dew Point 27 °F    
Average Humidity 59    
Maximum Humidity 88    
Minimum Humidity 30    
Precipitation  
Precipitation 0.00 in 0.01 in 0.54 in (1982)
Month to date precipitation 0.85 0.80  
Year to date precipitation 14.93 20.91  
Snow  
Snow 0.00 in - 3.70 in (1982)
Month to date snowfall 3.8  
Since 1 July snowfall 3.8  
Since 1 September snowfall 3.8  
Snow Depth T in    
Sea Level Pressure  
Sea Level Pressure 30.29 in    
Wind  
Wind Speed 9 mph (SSW)    
Max Wind Speed 17 mph    
Max Gust Speed 23 mph    
Visibility 10 miles    
Events      
T = Trace of Precipitation, MM = Missing Value Source: NWS Daily Summary

Daily Weather History Graph

Daily Weather History Graph

Search for Another Location

Airport or City:

Trip Planner

Search our weather history database for the weather conditions in past years. The results will help you decide how hot, cold, wet, or windy it might be!

Date:

Astronomy

Nov. 27, 2013 Rise Set
Actual Time 7:33 AM CST 5:32 PM CST
Civil Twilight 7:05 AM CST 6:00 PM CST
Nautical Twilight 6:34 AM CST 6:32 PM CST
Astronomical Twilight 6:03 AM CST 7:02 PM CST
Moon 1:48 AM CST (11/27) 2:01 PM CST (11/27)
Length of Visible Light 10h 55m
Length of Day
9h 59m
Waning Crescent, 31% of the Moon is Illuminated
Nov 27
Waning Crescent
Dec 2
New
Dec 9
First Quarter
Dec 17
Full
Dec 25
Last Quarter

Hourly Weather History & Observations

Time (CST) Temp. Windchill Dew Point Humidity Pressure Visibility Wind Dir Wind Speed Gust Speed Precip Events Conditions
12:51 AM 30.0 °F 26.5 °F 23.0 °F 75% 30.43 in 10.0 mi SW 3.5 mph - N/A   Clear
1:51 AM 28.9 °F 23.9 °F 21.9 °F 75% 30.43 in 10.0 mi East 4.6 mph - N/A   Clear
2:51 AM 28.9 °F 25.2 °F 21.9 °F 75% 30.43 in 10.0 mi South 3.5 mph - N/A   Clear
3:51 AM 25.0 °F - 21.9 °F 88% 30.42 in 10.0 mi Calm Calm - N/A   Clear
4:51 AM 26.1 °F 21.9 °F 21.0 °F 81% 30.40 in 10.0 mi SE 3.5 mph - N/A   Clear
5:51 AM 27.0 °F 20.5 °F 21.9 °F 81% 30.40 in 10.0 mi South 5.8 mph - N/A   Clear
6:51 AM 27.0 °F 23.0 °F 21.9 °F 81% 30.40 in 10.0 mi SSW 3.5 mph - N/A   Clear
7:51 AM 28.0 °F 24.2 °F 21.9 °F 78% 30.40 in 10.0 mi SSW 3.5 mph - N/A   Clear
8:51 AM 30.9 °F 23.5 °F 24.1 °F 76% 30.39 in 10.0 mi South 8.1 mph - N/A   Clear
9:51 AM 36.0 °F 29.0 °F 27.0 °F 70% 30.37 in 10.0 mi South 9.2 mph - N/A   Clear
10:51 AM 41.0 °F 35.8 °F 28.9 °F 62% 30.35 in 10.0 mi South 8.1 mph - N/A   Clear
11:51 AM 46.0 °F 41.4 °F 30.9 °F 56% 30.31 in 10.0 mi South 9.2 mph - N/A   Clear
12:51 PM 51.1 °F - 30.0 °F 44% 30.25 in 10.0 mi SW 9.2 mph 17.3 mph N/A   Clear
1:51 PM 53.1 °F - 28.9 °F 40% 30.22 in 10.0 mi SW 11.5 mph - N/A   Clear
2:51 PM 55.0 °F - 28.0 °F 35% 30.18 in 10.0 mi SSW 11.5 mph 19.6 mph N/A   Clear
3:51 PM 55.9 °F - 25.0 °F 30% 30.17 in 10.0 mi SW 13.8 mph - N/A   Clear
4:51 PM 55.0 °F - 26.1 °F 33% 30.17 in 10.0 mi SSW 11.5 mph - N/A   Clear
5:51 PM 48.0 °F - 34.0 °F 58% 30.18 in 10.0 mi South 9.2 mph - N/A   Clear
6:51 PM 44.1 °F 37.4 °F 33.1 °F 65% 30.19 in 10.0 mi South 13.8 mph 20.7 mph N/A   Clear
7:51 PM 42.1 °F 34.5 °F 30.9 °F 65% 30.20 in 10.0 mi South 15.0 mph 23.0 mph N/A   Clear
8:51 PM 42.1 °F 35.7 °F 30.9 °F 65% 30.19 in 10.0 mi SSW 11.5 mph - N/A   Clear
9:51 PM 41.0 °F 34.3 °F 30.0 °F 65% 30.18 in 10.0 mi SSW 11.5 mph - N/A   Clear
10:51 PM 41.0 °F 33.9 °F 30.0 °F 65% 30.17 in 10.0 mi SW 12.7 mph - N/A   Clear
11:51 PM 42.1 °F 34.5 °F 30.0 °F 62% 30.15 in 10.0 mi SW 15.0 mph - N/A   Clear